EHI
0 0 0 0 0 0 0 0 0 0 0 0 0 1 2 3 4 5 7 7 6 5 6 6 7 10 12 10 7 6 6 6 6 4 1 0 0 0 0 0 0 0 0 0
0 0 0 0 0 0 0 0 0 0 0 0 0 1 2 3 4 5 6 8 8 7 6 6 7 9 10 9 7 6 6 6 5 4 2 1 0 0 0 0 0 0 0 0
0 0 0 0 0 0 0 0 0 0 0 0 0 0 1 3 5 6 7 7 7 7 6 6 7 9 10 9 7 6 6 5 4 3 3 2 1 1 0 0 0 0 0 0
0 0 0 0 0 0 0 0 0 0 0 0 0 0 1 2 4 5 6 6 5 5 5 4 6 8 10 8 6 4 4 4 3 3 3 3 3 2 1 1 0 0 0 0
0 0 0 0 0 0 0 0 0 0 0 0 0 0 0 1 2 3 4 4 4 4 4 3 5 8 9 7 4 3 3 3 3 3 3 3 3 3 3 2 1 1 0 0
0 0 0 0 0 0 0 0 0 0 0 0 0 0 0 0 1 3 3 3 3 3 3 3 4 6 7 5 3 3 3 3 3 3 3 3 3 3 3 3 3 2 1 0
0 0 0 0 0 0 0 0 0 0 0 0 0 0 0 0 2 3 3 3 3 3 3 3 3 4 4 3 2 3 3 3 3 3 3 3 3 3 3 3 3 3 2 1
0 0 0 0 0 0 0 0 0 0 0 0 0 0 0 0 1 3 3 3 3 3 3 3 3 4 3 1 1 1 2 3 3 3 3 3 3 3 3 3 3 3 3 3
0 0 0 0 0 0 0 0 0 0 0 0 0 0 0 0 1 2 3 3 3 3 3 3 4 4 3 1 1 0 1 3 3 3 3 3 3 3 3 3 3 3 3 3
0 0 0 0 0 0 0 0 0 0 0 0 0 0 0 0 0 1 3 3 3 3 3 3 3 3 2 1 1 0 1 2 3 3 3 3 3 3 3 3 3 3 3 3
0 0 0 0 1 1 0 0 0 0 0 0 0 0 0 0 0 1 2 3 3 3 3 3 3 1 0 1 1 0 1 2 3 3 3 3 3 3 3 3 3 3 2 2
0 0 0 1 2 1 0 0 0 0 0 0 0 0 0 0 0 0 1 2 3 3 3 3 2 1 0 0 0 1 1 3 3 3 3 3 3 3 3 3 2 1 1 1
0 0 0 1 1 1 0 0 0 0 0 0 0 0 0 0 0 0 0 1 1 3 3 3 2 1 0 0 1 2 3 3 3 3 3 3 3 3 3 2 1 0 0 0
0 0 0 0 0 0 0 0 0 0 0 0 0 0 0 0 0 0 0 0 1 2 2 2 2 1 0 0 1 3 3 3 2 2 2 3 3 3 2 1 0 0 0 0
0 0 0 0 0 0 0 0 0 0 0 0 0 0 0 0 0 0 0 0 0 1 1 1 1 0 0 1 2 3 3 3 1 0 1 2 2 1 1 1 0 0 0 0
0 0 0 0 0 0 0 0 0 0 0 0 0 0 0 0 0 0 0 0 0 0 0 0 0 0 0 1 2 3 3 2 1 0 0 1 1 0 0 0 0 0 0 0
0 0 0 0 0 0 0 0 0 0 0 0 0 0 0 0 0 0 0 0 0 0 0 0 0 0 0 0 1 3 3 2 1 1 1 2 1 0 0 0 0 0 0 0
0 0 0 0 0 0 0 0 0 0 0 0 0 0 0 0 0 0 0 0 0 0 0 0 0 0 0 0 1 2 3 3 2 2 2 2 1 0 0 0 0 0 0 0
0 0 0 0 0 0 0 0 0 0 0 0 0 0 0 0 0 0 0 0 0 0 0 0 0 0 0 0 0 1 2 2 2 2 1 1 0 0 0 0 0 0 0 0
0 0 0 0 0 0 0 0 0 0 0 0 0 0 0 0 0 0 0 0 0 0 0 0 0 0 0 0 0 0 1 1 1 1 0 0 0 0 0 0 0 0 0 0
0 0 0 0 0 0 0 0 0 0 0 0 0 0 0 0 0 0 0 0 0 0 0 0 0 0 0 0 0 0 0 0 0 0 0 0 0 0 0 0 0 0 0 0
0 0 0 0 0 0 0 0 0 0 0 0 0 0 0 0 0 0 0 0 0 0 0 0 0 0 0 0 0 0 0 0 0 0 0 0 0 0 0 0 0 0 0 0
0 0 0 0 0 0 0 0 0 0 0 0 0 0 0 0 0 0 0 0 0 0 0 0 0 0 0 0 0 0 0 0 0 0 0 0 0 0 0 0 0 0 0 0
0 0 0 0 0 0 0 0 0 0 0 0 0 0 0 0 0 0 0 0 0 0 0 0 0 0 0 0 0 0 0 0 0 0 0 0 0 0 0 0 0 0 0 0
0 0 0 0 0 0 0 0 0 0 0 0 0 0 0 0 0 0 0 0 0 0 0 0 0 0 0 0 0 0 0 0 0 0 0 0 0 0 0 0 0 0 0 0
0 0 0 0 0 0 0 0 0 0 0 0 0 0 0 0 0 0 0 0 0 0 0 0 0 0 0 0 0 0 0 0 0 0 0 0 0 0 0 0 0 0 0 0
0 0 0 0 0 0 0 0 0 0 0 0 0 0 0 0 0 0 0 0 0 0 0 0 0 0 0 0 0 0 0 0 0 0 0 0 0 0 0 0 0 0 0 0
Wind_Speed
3 2 2 2 3 3 4 6 7 6 6 6 4 3 2 2 2 3 2 2 2 3 3 4 4 3 4 4 4 4 4 4 3 3 2 2 2 2 1 2 2 1 1 1
1 1 2 2 3 3 3 3 4 3 5 3 1 0 1 1 2 3 2 2 1 2 3 4 4 5 4 4 3 4 4 3 3 2 2 2 2 2 1 1 1 1 1 1
2 2 0 3 4 3 2 2 4 5 5 1 0 1 2 2 2 2 2 2 2 2 3 3 3 4 5 4 3 3 3 2 2 2 2 2 2 2 2 1 1 1 1 1
1 1 4 5 1 2 2 1 1 1 2 2 3 3 0 1 3 2 1 2 2 2 2 2 3 3 3 4 4 4 3 2 2 2 2 2 2 2 1 1 1 1 1 1
2 2 4 3 0 1 2 2 0 1 1 1 1 3 2 2 1 1 2 2 2 2 2 2 3 4 4 4 4 3 3 3 2 3 3 2 2 2 1 1 1 1 1 1
3 2 4 4 3 2 2 2 1 1 1 0 2 2 2 1 1 1 2 2 3 3 3 2 2 4 5 4 3 3 3 3 2 3 3 3 2 1 1 1 1 1 0 1
3 3 5 4 3 1 3 5 2 1 1 1 1 3 2 1 1 1 2 3 3 3 3 2 2 3 4 3 3 3 2 2 2 2 2 2 2 1 1 1 1 0 0 1
3 3 6 3 2 2 3 2 0 0 1 1 1 1 1 1 2 2 3 3 3 3 2 2 2 3 3 2 2 2 2 2 2 2 2 2 2 1 1 1 1 1 0 1
4 5 3 2 1 2 1 0 1 1 1 1 0 1 1 2 2 2 2 2 3 3 2 2 2 2 3 1 1 2 3 2 2 1 1 2 2 2 1 1 1 1 1 1
1 3 3 3 3 3 1 1 1 1 1 1 1 1 1 1 2 2 2 2 2 3 3 2 1 1 2 1 2 3 3 2 2 2 1 1 1 1 1 1 2 2 2 2
1 3 3 4 3 3 2 1 1 1 0 1 1 1 1 1 1 1 2 2 2 3 3 2 1 1 2 2 2 2 2 2 1 2 2 1 1 1 2 2 3 3 3 3
4 3 2 3 4 3 2 2 1 1 2 1 1 2 1 1 1 2 2 2 2 2 2 2 2 1 1 2 2 3 2 1 1 1 1 1 1 0 1 0 1 2 2 3
4 2 3 3 4 3 1 2 2 1 0 1 0 1 1 1 2 2 1 2 3 2 2 2 1 1 1 1 2 3 2 2 2 2 2 2 2 1 0 2 3 2 1 1
2 1 1 2 3 3 2 1 2 2 2 2 1 1 1 1 2 2 2 2 2 3 2 2 1 1 1 1 2 2 2 2 2 2 2 2 2 2 2 1 0 1 2 1
1 1 2 2 2 2 1 2 3 3 3 3 2 2 1 2 1 1 1 1 2 2 2 1 1 1 1 1 2 2 2 1 1 1 1 1 1 1 1 1 1 0 1 1
1 1 1 1 1 2 2 2 2 2 2 2 3 2 1 2 2 2 2 2 2 1 1 1 1 2 1 1 1 1 1 2 2 1 1 1 1 1 1 1 1 1 0 0
1 1 1 1 1 1 1 0 1 0 1 1 1 1 2 3 3 3 2 1 1 0 0 1 2 2 1 1 1 1 1 1 2 1 1 1 1 2 1 1 1 1 1 1
1 1 1 1 1 1 1 1 1 1 1 0 1 2 2 2 2 1 2 2 3 3 2 2 2 1 0 1 1 1 1 1 1 2 1 1 1 1 1 1 1 1 0 0
1 1 1 0 0 0 1 1 1 1 1 1 1 1 1 1 1 1 1 2 2 2 3 3 2 1 1 1 1 1 1 1 1 1 1 2 1 1 1 2 1 1 1 1
3 2 2 2 2 1 1 1 1 2 2 2 2 2 2 1 1 1 1 1 1 2 3 3 2 1 1 1 1 1 2 2 1 1 1 1 2 2 2 2 2 2 1 1
3 3 3 3 2 2 2 2 1 1 1 1 2 1 1 1 1 1 1 1 3 3 2 3 2 1 1 1 1 1 2 2 2 1 2 2 2 2 2 2 2 2 2 2
2 2 2 2 2 3 3 2 1 1 1 1 1 1 1 1 1 1 1 2 3 3 2 2 2 2 1 1 1 2 2 2 2 2 1 2 2 2 2 2 2 2 2 2
0 1 1 1 1 1 2 2 2 1 1 1 0 1 1 1 1 1 2 2 2 2 2 2 2 1 1 0 1 2 2 2 2 2 2 2 2 3 2 2 2 2 2 2
1 1 1 1 1 2 2 3 2 2 2 2 1 1 1 1 2 2 2 3 3 3 1 1 1 1 1 0 1 1 2 2 2 2 2 2 2 2 3 2 2 2 2 3
0 0 1 1 1 1 1 2 2 2 2 2 2 2 2 1 2 2 2 2 3 2 2 2 2 2 1 1 1 1 2 2 2 2 2 2 2 3 3 3 3 3 2 2
0 1 1 1 1 1 1 1 1 2 1 2 2 2 2 1 2 2 2 2 2 2 2 2 1 1 1 1 1 2 2 2 2 2 3 3 3 3 2 2 3 2 2 2
1 1 1 1 2 1 1 1 1 2 2 1 2 3 2 2 1 1 2 2 1 2 2 2 1 1 1 2 2 2 2 2 2 2 2 2 2 2 2 2 2 2 2 2
Wind_Direction
226 230 191 193 216 190 186 191 193 221 226 249 237 215 214 195 163 134 130 128 158 160 156 153 150 154 162 169 166 160 154 161 177 190 190 187 186 189 187 184 178 189 183 204
262 243 223 249 254 211 210 204 203 213 251 255 270 121 123 166 160 161 162 164 154 142 154 161 162 164 164 163 161 154 160 170 169 164 174 178 178 181 173 178 174 169 202 216
232 252 10 261 241 207 195 201 180 208 235 214 120 184 188 189 181 179 187 185 177 168 168 174 172 163 165 159 143 145 154 152 157 164 173 178 173 158 162 168 155 162 209 220
158 118 217 242 278 155 159 230 234 259 268 201 217 225 249 170 167 165 183 176 171 163 159 160 148 143 146 135 137 145 150 154 159 160 170 171 158 156 153 137 161 196 214 225
130 185 267 289 293 110 157 271 295 225 286 320 6 57 17 10 88 166 172 157 144 139 130 131 146 146 142 138 142 150 160 165 177 176 173 168 167 171 162 153 182 223 212 216
133 168 233 253 290 292 128 272 280 187 199 249 78 112 266 312 55 76 71 91 94 91 87 103 124 137 138 145 150 169 182 183 180 178 172 172 176 172 161 166 191 210 222 232
161 203 262 281 300 88 149 250 277 200 187 169 173 219 255 311 24 79 87 87 93 98 97 97 109 128 138 150 181 194 174 163 162 164 165 163 146 138 151 154 142 146 311 313
153 184 254 320 41 142 223 263 187 171 199 180 197 305 348 86 85 86 90 91 95 96 81 79 98 117 130 170 206 164 143 145 148 153 162 147 139 146 152 161 164 195 241 311
183 208 254 296 261 280 206 230 258 207 249 201 175 293 90 109 113 107 109 105 100 109 97 80 90 123 138 180 145 129 127 131 138 143 154 150 159 169 177 190 182 198 196 247
265 286 303 324 329 338 344 259 278 260 245 165 199 202 127 129 135 129 119 116 103 106 105 91 95 114 133 132 124 126 131 145 148 144 136 132 164 184 189 206 201 197 201 220
266 291 334 339 327 322 330 349 4 357 334 216 170 157 160 158 152 141 132 123 124 134 137 140 125 118 121 127 121 125 142 148 152 160 160 157 174 205 206 221 213 203 209 205
231 232 213 268 299 323 339 333 324 327 343 359 156 175 163 174 169 147 146 135 131 137 142 151 138 136 145 148 147 138 143 167 171 167 168 169 165 12 6 338 279 200 198 195
238 240 222 259 300 320 328 319 333 351 340 348 28 122 152 181 183 159 172 166 169 172 170 161 147 151 189 171 150 148 158 178 182 180 181 184 180 175 223 359 32 41 40 180
244 202 269 291 297 311 319 331 15 35 33 38 41 54 97 146 158 166 199 206 185 166 161 166 164 203 232 174 155 153 154 173 179 187 188 191 192 193 193 185 258 349 2 355
304 168 211 275 311 338 356 33 43 33 25 18 29 48 74 101 128 180 196 173 144 149 163 168 185 248 248 181 163 165 167 179 187 183 180 178 175 170 167 167 178 229 13 11
357 48 102 30 355 0 27 53 56 31 22 15 10 7 55 100 90 67 67 100 122 157 196 187 232 259 245 190 162 156 182 195 178 166 160 154 153 153 153 156 166 176 206 251
81 1 352 340 335 330 330 29 131 110 44 22 353 1 65 73 69 59 42 41 88 172 215 210 256 275 248 191 177 178 190 197 179 160 173 179 180 182 180 178 185 190 220 260
213 219 207 208 221 263 340 23 46 56 55 33 33 63 72 72 65 47 33 39 40 18 348 303 283 281 232 204 186 174 176 193 189 191 193 186 196 191 179 181 187 187 221 240
20 37 26 2 277 97 59 41 31 35 37 54 65 68 69 77 82 77 58 56 41 345 318 318 310 301 249 226 190 164 164 171 188 200 194 189 184 181 185 189 192 196 197 194
35 38 38 36 43 52 49 44 58 55 45 60 60 53 44 36 55 80 75 51 283 272 287 306 308 293 261 236 199 181 183 190 197 210 195 190 191 193 197 200 199 201 206 215
40 38 36 38 37 34 33 40 65 59 30 72 87 66 348 336 352 51 82 320 305 303 300 298 296 276 259 224 199 190 190 198 201 207 212 214 211 210 213 217 217 219 221 227
33 35 30 37 45 27 14 28 46 46 21 26 34 46 44 347 329 318 271 256 281 299 305 303 290 268 254 235 207 198 201 205 209 210 222 227 222 219 217 220 225 228 233 237
42 32 32 32 37 16 11 17 18 7 334 330 311 272 252 257 254 251 289 292 286 295 304 303 300 292 280 256 211 206 207 209 211 214 220 224 224 221 222 226 230 233 237 243
11 10 358 3 45 50 16 338 337 329 317 310 299 282 263 275 298 280 266 283 287 284 293 296 290 272 274 277 225 224 226 223 220 221 227 231 231 230 230 228 228 234 236 239
320 342 5 47 42 316 284 308 331 335 335 328 318 307 287 254 254 279 287 286 284 281 294 295 276 256 258 265 250 247 247 236 226 220 227 237 242 240 238 231 229 228 228 234
305 277 266 247 233 244 263 287 304 308 312 318 315 310 308 303 284 281 288 292 288 280 288 297 297 279 267 258 257 259 260 250 235 231 235 236 239 240 246 248 247 238 236 239
3 349 340 337 317 283 276 287 287 288 279 267 288 302 308 309 303 293 292 291 291 288 291 289 275 263 258 253 255 261 260 250 239 229 228 233 238 239 243 248 245 243 242 242